Flag for Canada Weather past 2 weeks in Pictou County, Nova Scotia, Canada

Now
78 °F

Warm.


Feels Like: 79 °F
Forecast: 61 / 72 °F
Wind: 13 mph from Southwest

Location: Caribou Point

Current Time: Jul 2, 2015 at 1:39:24 PM

Latest Report: Jul 2, 2015 at 1:00 PM


Visibility: N/A

Pressure: 29.74 "Hg

Humidity: 59%

Dew point: 62 °F

Location of Pictou CountyLocation

Historic Weather in Pictou County — Graph

°F

Pictou County temperature yesterday

Maximum temperature yesterday: 71 °F (at 7:00 PM)
Minimum temperature yesterday: 56 °F (at 6:00 AM)
Average temperature yesterday: 62 °F

Past Weeks' High & Low Weather Summary

 TemperatureHumidityPressure
High74 °F (Jul 2, 12:00 PM)100% (Jun 19, 11:00 PM)30.20 "Hg (Jun 19, 11:00 PM)
Low47 °F (Jun 27, 5:00 AM)35% (Jun 18, 2:00 PM)29.59 "Hg (Jun 22, 8:00 AM)
Average57 °F80%29.94 "Hg
* Reported Jun 17 12:00 Noon — Jul 2 12:00 Noon, Pictou County, Weather by CustomWeather, © 2015

Note: Actual official high and low records may vary slightly from our data, if they occured in-between our weather recording intervals... More about our weather records

Advertising

Pictou County weather history for previous 24 hours

 ConditionsComfort  
Time TempWeatherWind HumidityBarometerVisibility
12:00 PM
Thu, Jul 2
74 °FMild.10 mph70%29.75 "HgN/A
11:00 AM73 °FMild.13 mph72%29.75 "HgN/A
10:00 AM69 °FMild.13 mph76%29.75 "HgN/A
9:00 AM68 °FMild.5 mph83%29.78 "HgN/A
8:00 AM67 °FMild.3 mph81%29.76 "HgN/A
7:00 AM64 °FMild.2 mph85%29.76 "HgN/A
6:00 AM64 °FMild.9 mph96%29.77 "HgN/A
5:00 AM63 °FMild.8 mph96%29.78 "HgN/A
4:00 AM63 °FMild.16 mph95%29.78 "HgN/A
3:00 AM63 °FMild.13 mph95%29.80 "HgN/A
2:00 AM60 °FCool.6 mph92%29.82 "HgN/A
1:00 AM63 °FMild.23 mph93%29.80 "HgN/A
12:00 AM63 °FMild.16 mph88%29.83 "HgN/A
11:00 PM
Wed, Jul 1
60 °FCool.13 mph83%29.84 "HgN/A
10:00 PM62 °FCool.14 mph83%29.87 "HgN/A
9:00 PM66 °FMild.20 mph73%29.86 "HgN/A
8:00 PM68 °FMild.16 mph66%29.86 "HgN/A
7:00 PM71 °FMild.16 mph68%29.85 "HgN/A
6:00 PM62 °FCool.7 mph83%29.87 "HgN/A
5:00 PM66 °FMild.14 mph75%29.88 "HgN/A
3:00 PM65 °FMild.9 mph74%29.93 "HgN/A
2:00 PM64 °FMild.9 mph80%29.95 "HgN/A
1:00 PM63 °FMild.9 mph75%29.97 "HgN/A
Weather by CustomWeather, © 2015

See weather overviewHow to use our weather pages